Vorticity
nan nan nan nan nan nan nan nan nan nan nan nan nan nan nan nan nan nan nan nan nan nan nan nan nan nan nan nan nan nan nan nan nan nan nan nan nan nan nan nan nan nan nan nan nan nan nan nan nan nan nan nan nan nan nan nan nan nan nan nan nan nan nan nan nan nan nan nan nan nan nan nan nan nan nan nan nan nan nan nan nan nan nan nan nan nan
nan 8 11 15 10 5 8 14 12 9 8 7 9 10 13 13 12 12 16 15 11 10 9 10 9 9 13 19 18 12 9 6 5 5 6 7 8 9 10 10 10 10 9 9 8 8 8 8 8 8 8 8 7 7 7 7 7 7 8 8 8 9 9 9 9 9 9 9 9 9 9 9 9 9 9 9 9 10 10 10 10 10 10 10 10 nan
nan 7 9 11 9 5 6 10 11 12 10 8 8 11 12 10 8 8 10 12 11 9 8 9 9 9 9 14 17 15 10 8 7 7 8 9 10 10 10 10 10 10 9 9 8 8 8 8 8 8 7 7 7 7 7 7 8 8 9 9 9 9 9 9 9 9 9 9 9 9 10 10 10 10 10 10 10 10 10 11 11 11 11 11 11 nan
nan 8 9 9 9 7 8 8 10 11 11 10 10 11 10 8 8 8 9 9 9 9 9 9 8 8 9 13 17 17 12 9 9 9 9 10 10 10 10 10 10 10 9 9 8 8 8 8 7 7 7 7 7 8 8 8 8 9 9 9 9 9 9 9 9 9 9 9 9 10 10 10 10 10 10 11 11 11 11 11 11 11 11 11 12 nan
nan 8 9 9 9 10 11 9 9 10 11 10 10 10 9 8 8 9 9 9 8 8 9 10 9 8 8 10 13 14 13 10 10 9 10 10 10 10 10 10 10 10 9 8 8 8 7 7 7 7 7 8 8 8 8 9 9 9 9 8 8 8 8 9 9 9 9 9 10 10 10 10 10 10 11 11 11 11 11 11 11 11 11 11 11 nan
nan 9 9 9 9 10 12 10 10 9 9 9 9 9 8 8 8 8 8 9 9 8 8 10 10 10 8 8 10 12 14 13 12 11 11 10 10 10 10 10 10 9 8 8 8 7 7 7 8 8 8 8 9 9 9 8 8 8 8 8 8 8 8 9 9 9 9 9 9 9 9 10 10 10 10 10 11 11 11 11 11 11 11 11 11 nan
nan 9 9 8 9 10 10 11 10 9 8 8 8 8 8 8 9 9 9 8 9 9 9 9 10 11 11 11 12 15 19 21 21 21 18 17 15 14 13 12 10 9 8 8 8 8 8 8 8 8 8 8 9 9 8 8 8 7 8 8 8 8 8 8 8 8 8 8 9 9 10 10 10 11 11 11 11 11 11 11 11 11 11 11 11 nan
nan 9 8 8 8 9 9 10 11 10 9 9 9 9 8 8 9 10 10 9 9 9 9 9 9 10 11 13 16 18 19 22 25 28 28 28 26 23 19 16 14 11 10 9 9 9 9 9 9 9 9 8 8 8 8 8 8 8 8 8 8 8 8 8 8 8 8 9 9 10 10 10 11 11 11 11 11 11 10 10 11 11 10 10 10 nan
nan 7 9 9 8 8 9 10 11 10 10 10 10 10 10 8 8 9 9 9 10 10 10 9 8 9 10 12 15 17 15 14 13 14 16 19 21 22 20 19 19 18 13 12 11 10 9 9 9 8 8 8 8 8 8 8 8 8 8 8 7 7 7 8 8 8 9 9 9 10 10 10 10 11 10 10 10 10 10 10 10 10 10 10 10 nan
nan 7 9 10 10 9 9 10 11 12 12 11 11 11 10 9 8 8 8 8 9 10 10 10 9 9 9 11 13 15 16 15 12 9 6 4 5 7 10 12 14 17 15 12 11 10 9 8 8 8 8 8 8 9 9 9 9 8 8 7 7 7 8 8 8 8 9 9 9 10 10 10 10 10 10 10 10 10 10 10 10 10 10 10 10 nan
nan 11 10 10 11 11 10 10 11 12 12 10 10 10 10 11 10 9 8 8 8 9 9 10 10 10 9 10 12 13 15 17 21 23 21 17 13 11 12 12 12 13 15 14 13 12 9 8 8 8 9 10 10 10 10 10 9 8 7 7 7 7 7 8 8 8 9 9 9 10 10 10 10 10 10 10 9 10 10 10 10 10 10 10 10 nan
nan 12 12 11 10 11 11 10 9 9 9 8 8 9 10 11 11 10 10 8 8 8 9 10 11 11 10 9 10 12 13 14 17 21 25 27 27 25 25 24 23 23 24 22 22 21 15 12 12 12 12 12 11 10 9 8 7 7 6 6 6 7 7 8 8 9 9 9 9 9 9 9 9 9 9 9 9 9 10 10 10 10 10 10 10 nan
nan 10 11 11 10 9 10 10 8 7 7 8 8 8 9 10 11 11 11 10 9 8 9 9 10 12 12 10 9 10 11 11 12 13 15 18 20 21 21 21 22 24 25 25 26 26 23 21 21 20 15 13 12 11 10 8 6 6 6 6 6 7 8 9 9 9 9 9 9 9 9 9 9 9 9 9 9 9 9 9 10 10 10 10 10 nan
nan 9 9 10 9 9 10 10 8 7 6 7 8 8 9 10 11 11 10 10 10 10 9 8 8 9 12 12 10 10 9 9 10 11 10 11 12 12 12 12 12 13 14 15 16 19 21 22 24 26 24 19 15 14 12 8 6 5 6 7 7 8 8 9 8 8 8 8 8 8 9 9 9 9 9 9 9 9 9 9 9 9 10 10 10 nan
nan 9 9 9 8 8 10 11 11 9 8 8 9 9 10 10 10 10 10 10 10 10 10 10 9 9 11 13 12 12 9 8 9 10 10 9 11 12 11 9 9 9 10 10 11 15 19 17 17 20 25 20 14 9 4 3 3 5 6 7 7 8 8 8 8 8 8 8 8 8 9 9 9 9 9 9 9 9 9 9 9 9 10 10 10 nan
nan 10 10 8 7 7 9 10 11 11 10 10 10 10 10 10 9 10 10 10 10 11 11 11 11 10 13 15 14 13 11 8 9 10 10 10 11 13 12 9 8 8 10 10 11 14 18 16 14 13 15 12 6 2 1 0 1 5 6 7 8 8 8 8 8 8 8 8 8 9 9 9 9 9 9 9 9 9 9 10 10 10 10 10 10 nan
nan 10 10 9 9 8 9 10 11 11 11 10 10 10 10 10 9 9 9 9 9 9 10 11 10 10 13 17 19 18 13 8 9 10 12 11 12 14 12 10 10 9 10 10 11 12 13 12 11 11 11 6 3 3 3 2 4 6 6 7 8 8 8 8 8 7 8 8 8 9 9 9 9 9 9 9 9 9 10 10 10 10 10 11 11 nan
nan 9 10 9 10 10 10 10 10 10 9 10 10 10 10 10 9 10 9 9 8 7 8 8 8 7 8 11 16 22 19 10 8 9 11 11 12 14 13 11 11 10 10 10 10 10 10 10 9 5 2 2 1 2 3 4 5 6 7 8 8 8 8 8 8 8 8 8 8 8 9 9 9 9 9 9 9 9 10 10 10 10 10 10 10 nan
nan 8 8 9 9 10 9 9 8 8 8 8 9 10 10 10 10 10 9 9 9 8 8 6 6 6 6 6 9 17 19 13 9 8 8 10 10 13 14 12 11 10 9 10 10 10 10 12 12 7 -0 2 3 3 4 5 6 7 8 8 8 8 8 8 8 8 8 8 8 8 8 9 9 9 9 9 9 9 9 9 9 10 10 10 10 nan
nan 6 6 8 10 11 10 9 8 7 7 7 8 10 11 11 11 10 10 9 9 8 9 8 7 6 7 8 8 12 15 14 11 9 8 9 10 12 12 12 11 10 8 10 11 11 10 11 13 16 13 10 8 6 6 7 7 7 8 8 8 8 8 8 8 8 8 8 8 8 8 9 9 9 9 9 9 9 9 9 9 9 9 9 9 nan
nan 8 6 5 6 8 10 12 11 9 7 6 6 8 9 10 10 9 9 10 10 8 8 8 8 8 7 8 9 11 13 11 8 7 9 10 10 10 11 12 11 10 8 9 11 11 11 10 12 16 18 11 9 7 6 7 7 7 7 7 8 8 8 8 8 8 8 8 8 8 8 8 8 9 9 9 9 9 9 9 9 9 9 9 10 nan
nan 11 11 7 4 5 9 12 14 13 9 5 4 6 10 10 10 9 9 10 10 10 8 8 8 8 8 9 8 10 10 8 6 5 7 9 9 9 10 10 10 10 9 10 11 12 11 10 10 13 13 8 6 5 5 6 6 7 7 7 8 8 8 8 9 9 9 8 8 8 8 8 8 8 9 9 9 9 9 9 9 9 10 10 10 nan
nan 9 12 11 8 7 9 11 14 15 13 8 6 3 7 11 11 10 11 10 10 11 10 9 9 9 8 8 8 8 7 7 7 7 6 7 9 10 10 9 9 9 9 10 12 12 11 10 10 13 16 12 8 6 6 6 6 7 8 8 8 9 9 9 9 9 9 8 8 8 7 8 8 8 8 8 8 9 9 10 10 10 10 10 11 nan
nan 8 10 11 10 9 9 9 10 11 13 11 10 8 7 8 8 8 11 11 10 10 11 10 10 10 10 8 7 7 8 8 7 7 7 9 10 10 10 10 9 8 9 10 12 12 11 10 10 12 17 18 13 9 7 7 7 8 8 8 9 9 9 9 9 9 9 8 8 7 7 7 7 7 7 8 9 9 10 10 11 11 11 10 11 nan
nan 7 7 9 9 5 1 1 2 1 2 7 10 12 12 10 8 6 7 10 10 10 11 11 10 9 11 12 10 9 11 11 8 6 6 9 11 11 10 10 10 9 10 11 12 11 9 9 10 11 13 18 17 13 10 9 8 8 8 9 9 9 9 10 9 9 9 8 8 7 7 6 7 7 8 8 9 9 10 11 11 11 10 11 12 nan
nan 2 3 4 4 2 -3 -6 -6 -7 -13 -11 -2 6 12 13 11 8 7 9 10 10 9 9 9 8 9 10 11 11 12 13 11 8 5 7 9 10 11 11 11 10 10 11 11 10 8 8 9 10 11 16 20 19 12 10 9 8 8 9 9 10 10 10 9 9 8 8 7 7 7 7 7 7 8 9 9 10 10 11 11 11 11 15 20 nan
nan 1 4 4 4 3 0 -3 -4 -5 -13 -19 -16 -10 1 9 11 10 7 8 9 8 8 8 8 8 8 8 9 10 11 12 12 12 9 6 8 10 12 12 12 11 11 11 11 10 7 6 8 9 10 13 18 20 17 13 11 10 10 10 10 10 9 9 8 8 7 7 7 7 7 7 8 8 9 9 10 10 10 10 11 12 16 26 35 nan
nan 7 10 12 11 10 7 5 3 1 -3 -8 -12 -19 -15 -2 7 8 8 8 9 8 7 8 8 8 8 8 8 9 11 11 12 13 11 7 8 10 12 12 12 11 11 11 12 12 11 9 10 10 11 10 13 17 21 18 16 16 16 13 12 11 9 8 8 7 7 7 7 7 7 8 8 8 9 9 10 10 10 10 12 18 29 38 38 nan
nan 19 21 24 24 23 19 15 14 12 7 3 -3 -14 -19 -9 5 8 8 9 9 8 9 8 7 7 7 9 9 9 11 12 14 14 11 6 7 10 12 12 12 11 10 10 11 14 14 14 13 13 14 12 11 14 21 23 23 24 23 19 16 14 11 9 8 8 8 8 8 8 8 8 8 9 9 10 10 10 10 10 17 28 38 33 25 nan
nan 28 29 32 34 36 34 30 29 28 23 15 6 -6 -16 -9 4 9 9 9 9 8 9 9 8 7 6 8 9 10 13 15 15 15 10 5 6 11 13 11 11 10 9 9 10 12 14 15 15 14 15 15 13 12 15 19 20 21 22 23 23 20 14 12 11 11 10 10 9 8 8 8 9 9 10 10 10 10 10 12 21 30 30 21 16 nan
nan 23 23 24 26 29 31 32 35 39 39 32 22 7 -6 -4 4 10 10 10 9 8 8 9 9 8 6 5 7 8 13 18 17 14 9 5 8 12 13 11 10 10 9 8 8 9 11 14 15 15 14 13 12 11 10 10 11 13 14 18 21 21 16 15 14 15 15 13 11 10 10 10 10 10 10 10 10 10 10 13 19 24 20 14 12 nan
nan 15 16 16 15 15 17 19 24 31 37 37 31 21 9 4 5 8 10 10 9 8 8 8 8 8 6 3 4 4 8 15 18 15 7 5 9 13 13 11 9 10 10 8 7 5 7 9 11 11 10 9 10 10 9 8 8 8 9 11 13 16 18 18 19 20 19 17 17 16 14 13 12 11 11 11 11 11 10 13 16 18 13 11 11 nan
nan 10 12 12 11 11 11 11 12 16 22 26 26 23 18 13 10 7 9 10 10 10 9 9 8 8 8 7 5 4 5 13 19 18 6 2 8 12 13 12 10 9 10 9 7 6 6 6 6 8 8 9 9 10 11 11 9 9 10 10 10 13 19 20 21 21 19 19 21 21 20 20 18 16 15 14 14 13 13 14 13 10 4 6 8 nan
nan 10 9 10 10 10 10 10 9 8 10 14 17 18 17 16 14 12 11 12 13 13 12 11 11 10 9 10 10 8 7 13 18 16 4 -1 5 11 13 11 9 8 8 9 9 8 8 7 6 6 8 10 10 10 12 12 12 12 12 10 9 11 16 18 17 16 15 16 18 20 22 24 23 22 21 19 16 14 12 11 10 7 3 1 0 nan
nan 12 10 9 10 10 10 10 10 9 7 9 11 14 14 14 13 13 12 13 14 14 14 14 13 13 11 10 10 10 9 13 17 13 3 -1 3 8 11 11 9 8 7 8 8 8 9 10 8 5 4 7 9 11 11 12 13 13 12 11 9 9 10 11 11 11 12 12 12 13 16 18 19 20 19 14 11 8 7 9 9 9 8 2 -1 nan
nan 13 11 10 10 10 11 11 11 11 9 7 8 9 11 11 10 10 10 10 11 11 10 10 11 10 9 9 8 8 8 12 16 14 4 0 3 5 7 11 10 9 7 7 7 7 8 10 10 8 5 5 7 10 11 12 12 11 11 12 10 9 9 8 7 8 9 9 9 10 10 11 12 12 10 6 7 8 10 11 13 14 14 11 7 nan
nan 11 11 10 10 11 11 11 11 12 11 10 9 8 8 7 8 7 7 7 7 7 8 8 8 8 3 1 3 4 5 9 14 15 9 3 4 5 6 10 12 9 7 6 6 7 7 8 9 11 11 9 7 6 7 10 10 9 9 10 9 9 9 8 8 8 9 9 8 8 7 7 8 9 7 10 17 21 23 25 25 23 20 20 16 nan
nan 9 10 10 10 11 11 11 11 11 11 11 11 11 10 9 8 6 7 8 8 6 6 7 9 13 10 2 0 -0 3 8 11 14 11 6 6 6 6 8 11 10 7 7 7 8 8 7 9 10 12 12 9 6 6 7 8 8 9 9 9 8 9 10 10 10 10 10 9 7 7 9 10 10 11 18 22 24 26 28 26 23 25 29 27 nan
nan 9 10 9 9 9 10 10 11 11 12 12 12 12 13 14 13 10 9 12 12 12 10 8 10 15 18 15 11 7 6 10 11 12 11 7 6 7 8 7 8 9 9 8 8 8 8 8 8 7 6 9 10 10 10 8 8 7 7 10 12 13 11 11 12 11 10 10 10 10 12 12 12 11 11 13 13 13 15 16 17 19 24 27 28 nan
nan 9 11 11 9 8 9 10 10 11 13 14 14 13 11 12 15 16 15 13 14 15 16 13 11 13 16 18 19 18 15 13 13 10 11 9 8 8 9 8 8 9 10 9 9 8 7 7 7 6 5 5 7 7 7 8 6 4 3 8 11 12 11 8 9 9 9 9 11 12 12 10 9 8 9 8 8 9 10 10 11 12 15 16 19 nan
nan 9 10 12 13 12 10 11 11 12 12 12 13 13 12 10 11 13 13 12 12 12 13 13 11 10 11 13 15 18 17 15 15 10 11 13 10 7 7 9 9 9 10 11 10 9 8 7 7 7 8 7 7 7 7 6 5 5 7 7 5 5 7 7 9 11 11 10 11 11 8 7 8 9 9 8 9 10 9 7 6 6 10 12 11 nan
nan 8 8 9 11 13 13 13 13 13 11 10 11 11 11 10 10 9 10 10 10 10 10 10 9 9 9 9 11 12 14 14 15 12 11 13 11 8 6 7 8 9 10 10 10 10 8 7 7 8 8 8 9 10 10 9 10 12 11 7 5 8 14 17 16 15 13 11 10 10 10 10 11 11 10 10 11 10 10 7 5 4 8 10 11 nan
nan 9 10 10 11 13 13 12 11 11 11 11 11 10 10 10 10 9 8 9 10 10 9 9 10 10 9 9 10 12 14 15 15 13 9 9 10 9 7 7 7 7 8 9 10 12 12 9 8 8 9 9 9 8 9 10 12 14 13 9 8 9 13 16 13 10 9 10 10 10 11 11 10 10 10 10 10 11 11 11 13 14 12 11 11 nan
nan 10 10 10 11 11 13 12 11 11 11 11 10 9 10 11 11 9 7 8 10 11 10 10 11 11 10 10 10 11 14 17 17 17 15 10 5 3 7 8 7 8 6 5 7 10 14 14 12 10 10 10 9 9 9 9 10 11 11 10 9 6 2 2 4 5 8 9 10 10 9 10 10 9 9 10 10 11 12 14 16 17 15 13 12 nan
nan 11 10 10 10 11 11 11 9 10 10 10 10 10 11 12 11 9 7 8 10 10 10 10 9 10 11 12 12 11 12 15 15 16 22 23 16 7 3 6 8 9 8 6 6 6 9 12 13 12 12 11 10 9 8 8 9 10 10 11 10 9 5 3 5 7 9 9 9 9 9 9 10 10 9 9 10 10 10 10 10 11 13 13 12 nan
nan 11 10 11 11 12 11 9 9 9 10 10 10 10 10 12 11 12 10 8 9 9 10 9 7 7 8 10 11 11 11 12 12 13 17 22 22 19 13 9 8 7 8 9 8 7 6 6 8 9 10 11 11 11 10 8 8 9 11 12 12 11 11 10 11 10 10 9 10 11 12 11 11 10 7 7 9 10 11 11 11 11 12 12 12 nan
nan 10 9 9 10 11 12 11 10 10 10 10 9 10 10 10 11 11 11 10 8 9 9 9 8 7 6 6 8 8 9 9 9 10 13 15 16 17 17 16 14 9 7 8 9 8 7 6 6 6 6 8 10 11 11 10 9 9 10 12 11 10 10 10 11 12 11 10 10 11 14 12 10 7 7 8 9 11 11 11 12 12 13 12 12 nan
nan 10 9 9 10 10 11 11 11 10 10 9 9 11 11 11 10 6 9 12 10 9 9 8 9 9 8 7 7 7 6 6 7 9 10 12 14 14 13 14 15 14 12 11 10 9 9 9 7 5 4 5 6 8 9 10 10 9 11 10 10 10 9 10 10 11 12 12 11 10 10 10 8 6 8 9 10 9 9 10 11 13 13 13 12 nan
nan 11 10 9 10 10 11 11 11 11 10 9 8 10 14 16 14 5 5 10 10 10 10 10 9 9 9 9 9 10 8 7 7 8 9 11 12 13 13 12 12 12 13 14 14 13 15 17 15 10 4 1 1 4 7 9 9 9 10 10 11 11 11 11 11 11 12 12 12 11 9 8 7 7 8 9 8 7 7 10 11 13 14 14 13 nan
nan 13 12 11 11 11 12 12 12 11 11 10 8 9 11 14 15 12 9 10 10 10 10 11 10 9 9 9 10 11 10 8 8 9 9 10 10 11 12 11 10 9 9 12 13 13 15 20 23 23 16 4 -3 -4 4 8 10 10 9 11 12 13 13 12 12 12 10 10 11 10 8 6 7 8 9 9 9 9 10 11 11 12 14 14 13 nan
nan nan nan nan nan nan nan nan nan nan nan nan nan nan nan nan nan nan nan nan nan nan nan nan nan nan nan nan nan nan nan nan nan nan nan nan nan nan nan nan nan nan nan nan nan nan nan nan nan nan nan nan nan nan nan nan nan nan nan nan nan nan nan nan nan nan nan nan nan nan nan nan nan nan nan nan nan nan nan nan nan nan nan nan nan nan
CAPE
nan nan nan nan nan nan nan nan nan nan nan nan nan nan nan nan nan nan nan nan nan nan nan nan nan nan nan nan nan nan nan nan 0 0 1 3 5 5 8 14 14 20 27 33 33 35 35 34 34 34 39 45 52 52 66 82 82 96 111 124 124 128 127 118 118 111 106 115 132 132 149 159 163 163 173 179 190 190 202 204 204 204 201 196 196 200
nan nan nan nan nan nan nan nan nan nan nan nan nan nan nan nan nan nan nan nan nan nan nan nan nan nan nan nan nan nan nan nan nan nan 0 1 3 3 6 13 13 19 25 29 29 31 33 33 33 35 40 46 55 55 67 79 79 96 103 107 107 105 96 90 90 88 92 100 115 115 129 145 153 153 158 164 169 169 171 175 175 177 169 164 164 162
nan nan nan nan nan nan nan nan nan nan nan nan nan nan nan nan nan nan nan nan nan nan nan nan nan nan nan nan nan nan nan nan nan nan nan 0 2 2 4 11 11 18 23 26 26 29 32 33 33 35 42 51 60 60 73 83 83 87 89 85 85 79 75 70 70 74 79 89 100 100 111 122 131 131 134 143 140 140 136 135 135 149 148 153 153 154
nan nan nan nan nan nan nan nan nan nan nan nan nan nan nan nan nan nan nan nan nan nan nan nan nan nan nan nan nan nan nan nan nan nan nan 0 1 1 4 10 10 16 22 26 26 29 33 33 33 38 47 57 68 68 74 76 76 75 69 62 62 61 60 62 62 67 73 80 89 89 94 99 104 104 112 114 115 115 117 126 126 146 152 155 155 156
nan nan nan nan nan nan nan nan nan nan nan nan nan nan nan nan nan nan nan nan nan nan nan nan nan nan nan nan nan nan nan nan nan nan nan 0 1 1 5 12 12 17 22 26 26 33 35 38 38 46 54 57 67 67 69 62 62 61 55 53 53 54 58 63 63 65 65 70 73 73 77 80 84 84 88 94 100 100 108 122 122 136 145 147 147 155
nan nan nan nan nan nan nan nan nan nan nan nan nan nan nan nan nan nan nan nan nan nan nan nan nan nan nan nan nan nan nan nan nan nan nan 0 2 2 7 12 12 18 24 30 30 36 38 43 43 52 55 57 59 59 57 56 56 51 48 46 46 50 54 58 58 56 57 56 59 59 63 65 70 70 73 79 84 84 90 103 103 123 131 141 141 148
nan nan nan nan nan nan nan nan nan nan nan nan nan nan nan nan nan nan nan nan nan nan nan nan nan nan nan nan nan nan nan nan nan nan nan 1 3 3 9 14 14 20 28 35 35 37 41 48 48 51 50 55 52 52 52 49 49 45 45 43 43 46 50 53 53 52 50 51 52 52 52 54 57 57 61 67 69 69 73 88 88 106 118 129 129 138
nan nan nan nan nan nan nan nan nan nan nan nan nan nan nan nan nan nan nan nan nan nan nan nan nan nan nan nan nan nan nan nan nan nan nan nan 0 0 5 15 15 21 29 33 33 36 38 38 38 41 42 43 45 45 41 37 37 35 33 34 34 35 37 39 39 39 37 37 37 37 35 37 40 40 44 48 53 53 63 71 71 86 100 112 112 127
nan nan nan nan nan nan nan nan nan nan nan nan nan nan nan nan nan nan nan nan nan nan nan nan nan nan nan nan nan nan nan nan nan nan nan nan nan nan nan 0 0 9 19 24 24 29 34 35 35 36 40 40 38 38 34 32 32 30 28 29 29 28 29 30 30 33 32 31 33 33 35 34 35 35 42 44 53 53 60 66 66 76 90 110 110 126
nan nan nan nan nan nan nan nan nan nan nan nan nan nan nan nan nan nan nan nan nan nan nan nan nan nan nan nan nan nan nan nan nan nan nan nan nan nan nan nan nan nan 8 17 17 24 30 33 33 37 35 32 29 29 25 22 22 19 20 20 20 22 24 25 25 25 26 26 29 29 32 36 38 38 41 46 53 53 60 66 66 72 89 106 106 122
nan nan nan nan nan nan nan nan nan nan nan nan nan nan nan nan nan nan nan nan nan nan nan nan nan nan nan nan nan nan nan nan nan nan nan 0 1 1 3 3 3 7 12 18 18 23 27 30 30 30 27 24 19 19 13 10 10 12 14 18 18 18 18 17 17 17 19 24 31 31 36 37 40 40 45 50 55 55 58 62 62 69 83 97 97 113
nan nan nan nan nan nan nan nan nan nan nan nan nan nan nan nan nan nan nan nan nan nan nan nan nan nan nan nan nan nan nan nan nan nan nan nan nan nan nan nan nan 4 5 14 14 15 20 22 22 18 13 7 7 7 6 5 5 10 12 13 13 13 11 11 11 13 18 27 32 32 39 42 46 46 51 52 51 51 54 59 59 67 77 92 92 103
nan nan nan nan nan nan nan nan nan nan nan nan nan nan nan nan nan nan nan nan nan nan nan nan nan nan nan nan nan nan nan nan nan nan nan nan nan nan nan nan nan nan nan nan nan nan nan 3 3 3 3 2 3 3 5 5 5 6 7 8 8 8 9 10 10 14 21 27 35 35 39 43 47 47 52 51 52 52 54 57 57 66 72 86 86 97
nan nan nan nan nan nan nan nan nan nan nan nan nan nan nan nan nan nan nan nan nan nan nan nan nan nan nan nan nan nan nan nan nan nan nan nan nan nan nan nan nan nan nan nan nan nan nan nan nan nan nan nan 0 0 0 1 1 3 6 8 8 9 10 12 12 16 22 31 37 37 41 42 45 45 47 49 50 50 55 57 57 63 72 84 84 92
nan nan nan nan nan nan nan nan nan nan nan nan nan nan nan nan nan nan nan nan nan nan nan nan nan nan nan nan nan nan nan nan nan nan nan nan nan nan nan nan nan nan nan nan nan nan nan nan nan nan nan nan nan nan nan nan nan 3 7 8 8 9 10 13 13 17 22 29 33 33 40 41 43 43 45 48 50 50 54 56 56 63 71 80 80 94
nan nan nan nan nan nan nan nan nan nan nan nan nan nan nan nan nan nan nan nan nan nan nan nan nan nan nan nan nan nan nan nan nan nan nan nan nan nan nan nan nan nan nan nan nan nan nan nan nan nan nan nan nan nan nan 1 1 5 7 9 9 10 11 13 13 17 20 25 32 32 36 41 43 43 42 46 50 50 53 58 58 61 69 79 79 92
nan nan nan nan nan nan nan nan nan nan nan nan nan nan nan nan nan nan nan nan nan nan nan nan nan nan nan nan nan nan nan nan nan nan nan nan nan nan nan nan nan nan nan nan nan nan nan nan nan nan nan nan nan nan 0 2 2 6 8 9 9 10 11 13 13 15 20 23 30 30 36 40 42 42 42 46 49 49 52 55 55 58 66 76 76 89
nan nan nan nan nan nan nan nan nan nan nan nan nan nan nan nan nan nan nan nan nan nan nan nan nan nan nan nan nan nan nan nan nan nan nan nan nan nan nan nan nan nan nan nan nan nan nan nan nan nan nan nan nan nan 1 4 4 6 7 9 9 9 10 14 14 15 19 24 29 29 35 39 41 41 42 46 52 52 55 54 54 57 64 71 71 84
nan nan nan nan nan nan nan nan nan nan nan nan nan nan nan nan nan nan nan nan nan nan nan nan nan nan nan nan nan nan nan nan nan nan nan nan nan nan nan nan nan nan nan nan nan nan nan nan nan nan nan nan 1 1 3 4 4 5 6 7 7 9 12 15 15 17 19 24 28 28 31 35 40 40 43 49 53 53 54 57 57 58 66 78 78 88
nan nan nan nan nan nan nan nan nan nan nan nan nan nan nan nan nan nan nan nan nan nan nan nan nan nan nan nan nan nan nan nan nan nan nan nan nan nan nan nan nan nan nan nan nan nan nan nan nan nan nan nan 0 0 1 3 3 4 6 8 8 10 14 16 16 18 19 22 24 24 28 32 38 38 44 48 54 54 58 60 60 63 74 83 83 93
nan nan nan nan nan nan nan nan nan nan nan nan nan nan nan nan nan nan nan nan nan nan nan nan nan nan nan nan nan nan nan nan nan nan nan nan nan nan nan nan nan nan nan nan nan nan nan nan nan nan nan nan nan nan 0 2 2 3 5 8 8 11 14 16 16 19 20 21 23 23 27 32 36 36 43 49 54 54 58 61 61 68 78 87 87 93
nan nan nan nan nan nan nan nan nan nan nan nan nan nan nan nan nan nan nan nan nan nan nan nan nan nan nan nan nan nan nan nan nan nan nan nan nan nan nan nan nan nan nan nan nan nan nan nan nan nan nan nan nan nan 0 2 2 4 6 8 8 10 13 16 16 20 22 23 24 24 27 32 38 38 44 48 55 55 61 64 64 70 81 89 89 96
nan nan nan nan nan nan nan nan nan nan nan nan nan nan nan nan nan nan nan nan nan nan nan nan nan nan nan nan nan nan nan nan nan nan nan nan nan nan nan nan nan nan nan nan nan nan nan nan nan nan nan nan nan nan 0 2 2 4 5 7 7 9 13 16 16 20 23 24 27 27 28 32 39 39 44 49 55 55 60 66 66 73 81 90 90 105
nan nan nan nan nan nan nan nan nan nan nan nan nan nan nan nan nan nan nan nan nan nan nan nan nan nan nan nan nan nan nan nan nan nan nan nan nan nan nan nan nan nan nan nan nan nan nan nan nan nan nan nan nan nan nan 1 1 2 4 7 7 9 13 17 17 20 22 25 28 28 30 34 40 40 45 49 54 54 60 67 67 73 81 89 89 104
nan nan nan nan nan nan nan nan nan nan nan nan nan nan nan nan nan nan nan nan nan nan nan nan nan nan nan 0 nan nan nan nan nan nan nan nan nan nan nan nan nan nan nan nan nan nan nan nan nan nan nan nan nan nan nan 0 0 2 5 7 7 11 14 17 17 20 23 27 30 30 32 36 41 41 45 49 52 52 60 65 65 74 80 90 90 98
nan nan nan nan nan 1 2 nan nan nan nan nan nan nan nan nan nan nan nan nan nan nan nan nan nan nan nan nan nan nan nan nan nan nan nan nan nan nan nan nan nan nan nan nan nan nan nan nan nan nan nan nan nan nan nan 0 0 2 4 8 8 10 13 16 16 21 24 27 29 29 33 34 40 40 45 48 52 52 57 65 65 73 78 85 85 95
63 22 20 21 21 26 31 29 25 25 18 0 nan nan nan nan nan nan nan nan nan nan nan nan nan nan nan nan nan nan nan nan nan nan nan nan nan nan nan nan nan nan nan nan nan nan nan nan nan nan nan nan nan nan nan nan nan 1 3 6 6 8 12 15 15 20 23 25 27 27 30 33 40 40 44 50 54 54 57 64 64 68 70 71 71 87
119 111 55 35 35 36 37 41 42 42 43 37 25 25 1 nan nan nan nan nan nan nan nan nan nan nan nan nan nan nan nan nan nan nan nan nan nan nan nan nan nan nan nan nan nan nan nan nan nan nan nan nan nan nan nan nan nan 0 2 3 3 5 9 14 14 17 20 22 25 25 28 33 39 39 45 49 52 52 56 59 59 66 64 49 49 20
80 103 118 77 77 49 46 49 55 55 66 70 58 58 16 nan nan nan nan nan nan nan nan nan nan nan nan nan nan nan nan nan nan nan nan nan nan nan nan nan nan nan nan nan nan nan nan nan nan nan nan nan nan nan nan nan nan nan 1 2 2 4 8 12 12 14 18 20 23 23 28 33 38 38 42 42 44 44 49 52 52 61 53 30 30 11
17 45 69 97 97 96 73 37 61 61 89 96 87 87 33 nan nan nan nan nan nan nan nan nan nan nan nan nan nan nan nan nan nan nan nan nan nan nan nan nan nan nan nan nan nan nan nan nan nan nan nan nan nan nan nan nan nan nan nan 0 0 2 5 10 10 14 17 19 24 24 26 30 33 33 33 36 40 40 46 50 50 47 19 7 7 5
nan nan nan 2 2 11 13 2 39 39 100 122 117 117 58 nan nan nan nan nan nan nan nan nan nan nan nan nan nan nan nan nan nan nan nan nan nan nan nan nan nan nan nan nan nan nan nan nan nan nan nan nan nan nan nan nan nan nan nan nan nan nan 3 9 9 13 17 19 21 21 22 24 26 26 28 32 39 39 44 52 52 41 11 4 4 6
nan nan nan nan nan nan nan nan nan nan nan 0 18 18 58 18 0 0 nan nan nan nan nan nan nan nan nan nan nan nan nan nan nan nan nan nan nan nan nan nan nan nan nan nan nan nan nan nan nan nan nan nan nan nan nan nan nan nan nan nan nan nan nan 4 4 5 3 7 9 9 12 15 18 18 22 27 31 31 38 48 48 42 14 3 3 8
nan nan nan nan nan nan nan nan 0 0 0 nan nan nan 1 14 15 15 nan nan nan nan nan nan nan nan nan nan nan nan nan nan nan nan nan nan nan nan nan nan nan nan nan nan nan nan nan nan nan nan nan nan nan nan nan nan nan nan nan nan nan nan nan nan nan nan nan nan nan nan 6 10 14 14 18 23 29 29 37 44 44 48 37 6 6 11
nan nan nan nan nan nan nan nan nan nan 0 nan nan nan nan nan 1 1 nan nan nan nan nan nan nan nan nan nan nan nan nan nan nan nan nan nan nan nan nan nan nan nan nan nan nan nan nan nan nan nan nan nan nan nan nan nan nan nan nan nan nan nan nan nan nan nan nan nan nan nan nan nan 4 4 8 16 23 23 33 46 46 55 56 33 33 18
nan nan nan nan nan nan nan nan nan nan nan nan nan nan nan nan nan nan nan nan nan nan nan nan nan nan nan nan nan nan nan nan nan nan nan nan nan nan nan nan nan nan nan nan nan nan nan nan nan nan nan nan nan nan nan nan nan nan nan nan nan nan nan nan nan nan nan nan nan nan nan nan nan nan nan 6 19 19 35 49 49 56 61 61 61 37
nan nan nan nan nan nan nan nan nan nan nan nan nan nan nan nan nan nan nan nan nan nan nan nan nan nan nan nan nan nan nan nan nan nan nan nan nan nan nan nan nan nan nan nan nan nan nan nan nan nan nan nan nan nan nan nan nan nan nan nan nan nan nan nan nan nan nan nan nan nan nan nan nan nan nan 12 29 29 40 47 47 52 53 55 55 52
nan nan nan nan nan nan nan nan nan nan nan nan nan nan nan nan nan nan nan nan nan nan nan nan nan nan nan nan nan nan nan nan nan nan nan nan nan nan nan nan nan nan nan nan nan nan nan nan nan nan nan nan nan nan nan nan nan nan nan nan nan nan nan nan nan nan nan nan nan nan nan nan nan nan nan 12 17 17 29 41 41 42 50 51 51 54
nan nan nan nan nan nan nan nan nan nan nan nan nan nan nan nan nan nan nan nan nan nan nan nan nan nan nan nan nan nan nan nan nan nan nan nan nan nan nan nan nan nan nan nan nan nan nan nan nan nan nan nan nan nan nan nan nan nan nan nan nan nan nan nan nan nan nan nan nan nan nan nan nan nan nan nan nan nan nan nan nan 15 34 37 37 50
nan nan nan nan nan nan nan nan nan nan nan nan nan nan nan nan nan nan nan nan nan nan nan nan nan nan nan nan nan nan nan nan nan nan nan nan nan nan nan nan nan nan nan nan nan nan nan nan nan nan nan nan nan nan nan nan nan nan nan nan nan nan nan nan nan nan nan nan nan nan nan nan nan nan nan nan nan nan nan nan nan 4 5 3 3 23
nan nan nan nan nan nan nan nan nan nan nan nan nan nan nan nan nan nan nan nan nan nan nan nan nan nan nan nan nan nan nan nan nan nan nan nan nan nan nan nan nan nan nan nan nan nan nan nan nan nan nan nan nan nan nan nan nan nan nan nan nan nan nan nan nan nan nan nan nan nan nan nan nan nan nan nan nan nan nan nan nan nan 3 1 1 1
nan nan nan nan nan nan nan nan nan nan nan nan nan nan nan nan nan nan nan nan nan nan nan nan nan nan nan nan nan nan nan nan nan nan nan nan nan nan nan nan nan nan nan nan nan nan nan nan nan nan nan nan nan nan nan nan nan 0 5 nan nan nan nan nan nan nan nan nan nan nan nan nan nan nan nan nan nan nan nan nan nan nan 1 0 0 0
nan nan nan nan nan nan nan nan nan nan nan nan nan nan nan nan nan nan nan nan nan nan nan nan nan nan nan nan nan nan nan nan nan nan nan nan nan nan nan nan nan nan nan nan nan nan nan nan nan nan nan nan nan nan nan nan nan nan 2 nan nan nan 1 nan nan nan nan nan nan nan nan nan nan nan nan nan nan nan nan nan nan 3 3 nan nan nan
nan nan nan nan nan nan nan nan nan nan nan nan nan nan nan nan nan nan nan nan nan nan nan nan nan nan nan nan nan nan nan nan nan nan nan nan nan nan nan nan nan nan nan nan nan nan nan nan nan nan nan nan nan nan nan nan nan nan nan 1 1 nan nan nan nan nan nan nan nan nan nan nan nan nan nan nan nan nan nan nan nan 10 5 nan nan nan
nan nan nan nan nan nan nan nan nan nan nan nan nan nan nan nan nan nan nan nan nan nan nan nan nan nan nan nan nan nan nan nan nan nan nan nan nan nan nan nan nan nan nan nan nan nan nan nan nan nan nan nan nan nan nan nan nan nan nan 0 0 0 nan nan nan nan nan nan nan nan nan nan nan nan nan nan nan nan nan nan nan nan nan nan nan nan
nan nan nan nan nan nan nan nan nan nan nan nan nan nan nan nan nan nan nan nan nan nan nan nan nan nan nan nan nan nan nan nan nan nan nan nan nan nan nan nan nan nan nan nan nan nan nan nan nan nan nan nan nan nan nan nan nan nan 1 2 2 1 nan nan nan nan nan nan nan nan nan nan nan nan nan nan nan nan nan nan nan nan nan nan nan nan
nan nan nan nan nan nan nan nan nan nan nan nan nan nan nan nan nan nan nan nan nan nan nan nan nan nan nan nan nan nan nan nan nan nan nan nan nan nan nan nan nan nan nan nan nan nan nan nan nan nan nan nan nan nan nan nan nan nan nan 0 0 nan nan nan nan nan nan nan nan nan nan nan nan nan nan nan nan nan nan nan nan nan nan nan nan nan
nan nan nan nan nan nan nan nan nan nan nan nan nan nan nan nan nan nan nan nan nan nan nan nan nan nan nan nan nan nan nan nan nan nan nan nan nan nan nan nan nan nan nan nan nan nan nan nan nan nan nan nan nan nan nan nan nan nan nan nan nan nan nan nan nan nan nan nan nan nan nan nan nan nan nan nan nan nan nan nan nan nan nan nan nan nan
nan nan nan nan nan nan nan nan nan nan nan nan nan nan nan nan nan nan nan nan nan nan nan nan nan nan nan nan nan nan nan nan nan nan nan nan nan nan nan nan nan nan nan nan nan nan nan nan nan nan nan nan nan nan nan nan nan nan nan nan nan nan nan nan nan nan nan nan nan nan nan nan nan nan nan nan nan nan nan nan nan nan nan nan nan nan
nan nan nan nan nan nan nan nan nan nan nan nan nan nan nan nan 2 2 nan nan nan nan nan nan nan nan nan nan nan nan nan nan nan nan nan nan nan nan nan nan nan nan nan nan nan nan nan nan nan nan nan nan nan nan nan nan nan nan nan nan nan nan nan nan nan nan nan nan nan nan nan nan nan nan nan nan nan nan nan nan nan nan nan nan nan nan
nan nan nan nan nan nan nan nan nan nan nan nan nan nan nan nan nan nan nan nan nan nan nan nan nan nan nan nan nan nan nan nan nan nan nan nan nan nan nan nan nan nan nan nan nan nan nan nan nan nan 4 0 nan nan nan nan nan nan nan nan nan nan nan nan nan nan nan nan nan nan nan nan nan nan nan nan nan nan nan nan nan nan nan nan nan nan
nan nan nan nan nan nan nan nan nan nan nan nan nan nan nan nan nan nan nan nan nan nan nan nan nan nan nan nan nan nan nan nan nan nan nan nan nan nan nan nan nan nan nan nan nan nan nan nan nan nan 16 40 12 12 nan nan nan nan nan nan nan nan nan nan nan nan nan nan nan nan nan nan nan nan nan nan nan nan nan nan nan nan nan nan nan nan